UAL2624 KCLE-KRDU

Flight info

Callsign UAL2624
Flight time 1h 3m
Altitude 31000
Route KKIDS1 NUSMM EKN/N0429F380 FRIKY ALDAN4
Aircraft B737/M-SDE2E3FGHIRWXY/LB1

Departure

Time 2026-05-06 23:04
Airport Cleveland Hopkins International Airport (KCLE)

Arrival

Time 2026-05-07 00:08
Airport Raleigh-Durham International Airport (KRDU)
Time Latitude Longitude Altitude Speed Heading
2026-05-06 22:45 41.40688 -81.84155 774 ft 0 kts 348°
2026-05-06 22:56 41.40666 -81.84149 772 ft 4 kts 348°
2026-05-06 22:56 41.40640 -81.84141 772 ft 4 kts 340°
2026-05-06 22:56 41.40619 -81.84125 772 ft 4 kts 297°
2026-05-06 22:56 41.40616 -81.84109 772 ft 1 kts 258°
2026-05-06 22:57 41.40617 -81.84106 772 ft 0 kts 258°
2026-05-06 22:59 41.40617 -81.84107 772 ft 1 kts 258°
2026-05-06 22:59 41.40610 -81.84164 772 ft 12 kts 265°
2026-05-06 22:59 41.40612 -81.84324 772 ft 22 kts 271°
2026-05-06 22:59 41.40620 -81.84553 772 ft 25 kts 273°
2026-05-06 23:00 41.40630 -81.84777 770 ft 23 kts 273°
2026-05-06 23:00 41.40639 -81.84988 770 ft 22 kts 273°
2026-05-06 23:00 41.40649 -81.85193 770 ft 22 kts 274°
2026-05-06 23:00 41.40638 -81.85389 770 ft 21 kts 239°
2026-05-06 23:01 41.40545 -81.85538 770 ft 21 kts 230°
2026-05-06 23:01 41.40454 -81.85682 770 ft 20 kts 230°
2026-05-06 23:01 41.40363 -81.85827 770 ft 23 kts 230°
2026-05-06 23:01 41.40233 -81.85948 770 ft 23 kts 188°
2026-05-06 23:02 41.40100 -81.86045 770 ft 22 kts 230°
2026-05-06 23:02 41.40001 -81.86202 770 ft 22 kts 230°
2026-05-06 23:02 41.39906 -81.86354 770 ft 21 kts 229°
2026-05-06 23:02 41.39812 -81.86500 770 ft 20 kts 230°
2026-05-06 23:03 41.39721 -81.86643 770 ft 20 kts 229°
2026-05-06 23:03 41.39648 -81.86792 770 ft 19 kts 269°
2026-05-06 23:03 41.39737 -81.86915 769 ft 19 kts 322°
2026-05-06 23:03 41.39839 -81.86882 770 ft 6 kts 52°
2026-05-06 23:04 41.39889 -81.86800 769 ft 52 kts 50°
2026-05-06 23:04 41.40374 -81.86045 813 ft 154 kts 50°
2026-05-06 23:04 41.41101 -81.84793 1828 ft 182 kts 50°
2026-05-06 23:04 41.41907 -81.83468 3292 ft 195 kts 47°
2026-05-06 23:05 41.42654 -81.81816 4059 ft 223 kts 72°
2026-05-06 23:05 41.43023 -81.79731 4825 ft 242 kts 74°
2026-05-06 23:05 41.43431 -81.77449 5508 ft 260 kts 74°
2026-05-06 23:05 41.43863 -81.75027 6272 ft 280 kts 74°
2026-05-06 23:06 41.44330 -81.72421 7136 ft 297 kts 74°
2026-05-06 23:06 41.44816 -81.69724 8307 ft 301 kts 75°
2026-05-06 23:06 41.45224 -81.66962 9357 ft 310 kts 89°
2026-05-06 23:06 41.44771 -81.64161 10266 ft 314 kts 123°
2026-05-06 23:07 41.43372 -81.61853 10723 ft 324 kts 146°
2026-05-06 23:07 41.41613 -81.59843 11132 ft 343 kts 144°
2026-05-06 23:07 41.39821 -81.57577 11182 ft 367 kts 141°
2026-05-06 23:07 41.37980 -81.55099 11852 ft 383 kts 140°
2026-05-06 23:08 41.36116 -81.52532 12856 ft 388 kts 141°
2026-05-06 23:08 41.34231 -81.49924 13792 ft 395 kts 141°
2026-05-06 23:08 41.32318 -81.47320 14530 ft 401 kts 145°
2026-05-06 23:08 41.30012 -81.45295 15366 ft 385 kts 167°
2026-05-06 23:09 41.27500 -81.44185 16335 ft 380 kts 173°
2026-05-06 23:09 41.24947 -81.43181 17229 ft 385 kts 174°
2026-05-06 23:09 41.22394 -81.42153 17953 ft 393 kts 174°
2026-05-06 23:09 41.19756 -81.41051 18663 ft 402 kts 173°
2026-05-06 23:10 41.17101 -81.39785 19413 ft 409 kts 171°
2026-05-06 23:10 41.14432 -81.38405 20159 ft 415 kts 171°
2026-05-06 23:10 41.11737 -81.36976 20836 ft 420 kts 171°
2026-05-06 23:10 41.09006 -81.35525 21487 ft 425 kts 172°
2026-05-06 23:11 41.06238 -81.34064 22134 ft 431 kts 172°
2026-05-06 23:11 41.03439 -81.32598 22796 ft 435 kts 173°
2026-05-06 23:11 41.00615 -81.31127 23446 ft 438 kts 173°
2026-05-06 23:11 40.97773 -81.29651 24067 ft 440 kts 174°
2026-05-06 23:12 40.94913 -81.28174 24562 ft 444 kts 174°
2026-05-06 23:12 40.92020 -81.26686 25062 ft 448 kts 174°
2026-05-06 23:12 40.89098 -81.25185 25569 ft 452 kts 174°
2026-05-06 23:12 40.86155 -81.23674 26083 ft 456 kts 174°
2026-05-06 23:13 40.83186 -81.22149 26634 ft 459 kts 174°
2026-05-06 23:13 40.80221 -81.20621 27464 ft 453 kts 175°
2026-05-06 23:13 40.77348 -81.19118 28768 ft 436 kts 175°
2026-05-06 23:13 40.74587 -81.17667 30135 ft 419 kts 177°
2026-05-06 23:14 40.71897 -81.16273 30747 ft 413 kts 178°
2026-05-06 23:14 40.69248 -81.14917 30987 ft 404 kts 179°
2026-05-06 23:14 40.66582 -81.13584 30988 ft 417 kts 179°
2026-05-06 23:14 40.63823 -81.12227 31002 ft 430 kts 178°
2026-05-06 23:15 40.60985 -81.10824 31001 ft 442 kts 177°
2026-05-06 23:15 40.58071 -81.09361 31004 ft 454 kts 176°
2026-05-06 23:15 40.55087 -81.07848 30963 ft 464 kts 176°
2026-05-06 23:16 40.48959 -81.04722 30997 ft 480 kts 175°
2026-05-06 23:16 40.42734 -81.01521 30987 ft 479 kts 175°
2026-05-06 23:17 40.36575 -80.98381 30970 ft 477 kts 175°
2026-05-06 23:17 40.30392 -80.95252 30963 ft 476 kts 176°
2026-05-06 23:18 40.24184 -80.92135 30971 ft 474 kts 176°
2026-05-06 23:18 40.18067 -80.89060 30958 ft 475 kts 175°
2026-05-06 23:19 40.11894 -80.85968 30959 ft 476 kts 175°
2026-05-06 23:19 40.05687 -80.82845 30968 ft 481 kts 175°
2026-05-06 23:20 39.99434 -80.79389 30959 ft 496 kts 170°
2026-05-06 23:20 39.94260 -80.75973 30967 ft 499 kts 168°
2026-05-06 23:21 39.88147 -80.71833 30945 ft 500 kts 167°
2026-05-06 23:21 39.81998 -80.67681 30957 ft 495 kts 169°
2026-05-06 23:22 39.75817 -80.63726 30975 ft 496 kts 169°
2026-05-06 23:22 39.69618 -80.59758 30966 ft 497 kts 169°
2026-05-06 23:23 39.63415 -80.55776 30899 ft 497 kts 169°
2026-05-06 23:23 39.57237 -80.51805 30956 ft 495 kts 169°
2026-05-06 23:24 39.51061 -80.47827 30965 ft 496 kts 169°
2026-05-06 23:24 39.44867 -80.43854 30957 ft 497 kts 169°
2026-05-06 23:25 39.38674 -80.39890 30931 ft 496 kts 169°
2026-05-06 23:25 39.32490 -80.35941 30967 ft 496 kts 169°
2026-05-06 23:26 39.26301 -80.32007 30967 ft 496 kts 169°
2026-05-06 23:26 39.20111 -80.28064 30972 ft 496 kts 169°
2026-05-06 23:27 39.13970 -80.24164 30939 ft 494 kts 168°
2026-05-06 23:27 39.07819 -80.20260 30956 ft 492 kts 168°
2026-05-06 23:28 39.01688 -80.16386 30935 ft 491 kts 168°
2026-05-06 23:28 38.95567 -80.12523 30951 ft 490 kts 168°
2026-05-06 23:28 38.92481 -80.10844 30926 ft 471 kts 176°
2026-05-06 23:29 38.89373 -80.09724 30972 ft 458 kts 182°
2026-05-06 23:29 38.86287 -80.09145 30980 ft 442 kts 188°
2026-05-06 23:29 38.83232 -80.08785 30963 ft 440 kts 190°
2026-05-06 23:30 38.77152 -80.08158 30973 ft 438 kts 190°
2026-05-06 23:30 38.71071 -80.07497 30953 ft 438 kts 190°
2026-05-06 23:31 38.65006 -80.06798 30949 ft 437 kts 189°
2026-05-06 23:31 38.58949 -80.06088 30944 ft 437 kts 189°
2026-05-06 23:32 38.52874 -80.05382 30950 ft 439 kts 189°
2026-05-06 23:32 38.46779 -80.04673 30899 ft 440 kts 189°
2026-05-06 23:33 38.40671 -80.03958 30926 ft 441 kts 188°
2026-05-06 23:33 38.34577 -80.03250 30910 ft 439 kts 188°
2026-05-06 23:34 38.28505 -80.02540 30933 ft 439 kts 188°
2026-05-06 23:34 38.22413 -80.01840 30902 ft 441 kts 188°
2026-05-06 23:35 38.16293 -80.01136 30907 ft 442 kts 188°
2026-05-06 23:35 38.10152 -80.00422 30917 ft 444 kts 188°
2026-05-06 23:36 38.03988 -79.99710 30910 ft 445 kts 188°
2026-05-06 23:36 37.97816 -79.99006 30904 ft 445 kts 187°
2026-05-06 23:37 37.91654 -79.98284 30971 ft 445 kts 188°
2026-05-06 23:37 37.85493 -79.97565 30963 ft 445 kts 188°
2026-05-06 23:38 37.79324 -79.96867 30947 ft 446 kts 188°
2026-05-06 23:38 37.73192 -79.96164 30930 ft 445 kts 187°
2026-05-06 23:39 37.67021 -79.95457 30913 ft 445 kts 187°
2026-05-06 23:39 37.60863 -79.94757 30918 ft 444 kts 187°
2026-05-06 23:40 37.54722 -79.94063 30915 ft 443 kts 187°
2026-05-06 23:40 37.48586 -79.93364 30921 ft 443 kts 187°
2026-05-06 23:41 37.42430 -79.92667 30934 ft 445 kts 187°
2026-05-06 23:41 37.36253 -79.91969 30950 ft 447 kts 186°
2026-05-06 23:42 37.30037 -79.91270 30938 ft 449 kts 187°
2026-05-06 23:42 37.26914 -79.90695 30888 ft 467 kts 174°
2026-05-06 23:42 37.23867 -79.89005 30902 ft 492 kts 159°
2026-05-06 23:42 37.21150 -79.86228 30899 ft 518 kts 140°
2026-05-06 23:43 37.18833 -79.82723 30807 ft 522 kts 137°
2026-05-06 23:43 37.16617 -79.79140 30539 ft 519 kts 135°
2026-05-06 23:43 37.14465 -79.75547 30298 ft 513 kts 134°
2026-05-06 23:43 37.12329 -79.71993 30065 ft 509 kts 135°
2026-05-06 23:44 37.10184 -79.68481 29813 ft 505 kts 135°
2026-05-06 23:44 37.08034 -79.65020 29533 ft 502 kts 136°
2026-05-06 23:44 37.05882 -79.61597 29256 ft 499 kts 136°
2026-05-06 23:44 37.03730 -79.58198 28806 ft 496 kts 136°
2026-05-06 23:45 37.01593 -79.54831 28096 ft 491 kts 136°
2026-05-06 23:45 36.99480 -79.51503 27381 ft 485 kts 135°
2026-05-06 23:45 36.97477 -79.48124 26682 ft 487 kts 126°
2026-05-06 23:45 36.96163 -79.44205 26164 ft 491 kts 107°
2026-05-06 23:46 36.95677 -79.39992 25722 ft 488 kts 95°
2026-05-06 23:46 36.95544 -79.35774 25276 ft 483 kts 92°
2026-05-06 23:46 36.95485 -79.31581 24840 ft 483 kts 91°
2026-05-06 23:46 36.95444 -79.27399 24404 ft 478 kts 91°
2026-05-06 23:47 36.95409 -79.23268 24026 ft 472 kts 91°
2026-05-06 23:47 36.95376 -79.19181 23946 ft 470 kts 90°
2026-05-06 23:47 36.95344 -79.15117 23909 ft 466 kts 90°
2026-05-06 23:47 36.95313 -79.11065 23919 ft 466 kts 90°
2026-05-06 23:48 36.95283 -79.07009 23916 ft 467 kts 90°
2026-05-06 23:48 36.95248 -79.02965 23897 ft 463 kts 92°
2026-05-06 23:48 36.94661 -78.99067 23896 ft 449 kts 115°
2026-05-06 23:48 36.93125 -78.95860 23784 ft 428 kts 137°
2026-05-06 23:49 36.90892 -78.93560 23486 ft 409 kts 156°
2026-05-06 23:49 36.88387 -78.91985 22978 ft 398 kts 165°
2026-05-06 23:49 36.85804 -78.90935 22399 ft 383 kts 176°
2026-05-06 23:49 36.83226 -78.90595 21823 ft 364 kts 189°
2026-05-06 23:50 36.80720 -78.90708 21224 ft 358 kts 191°
2026-05-06 23:50 36.75776 -78.91071 20053 ft 354 kts 192°
2026-05-06 23:50 36.73330 -78.91252 19491 ft 351 kts 192°
2026-05-06 23:51 36.70891 -78.91423 18907 ft 350 kts 192°
2026-05-06 23:51 36.68468 -78.91586 18359 ft 348 kts 192°
2026-05-06 23:51 36.66058 -78.91744 17761 ft 346 kts 192°
2026-05-06 23:51 36.63665 -78.91898 17145 ft 343 kts 191°
2026-05-06 23:52 36.61291 -78.92049 16543 ft 341 kts 191°
2026-05-06 23:52 36.58933 -78.92198 15955 ft 337 kts 191°
2026-05-06 23:52 36.56604 -78.92345 15373 ft 334 kts 191°
2026-05-06 23:52 36.54298 -78.92490 14821 ft 330 kts 190°
2026-05-06 23:53 36.52019 -78.92635 14266 ft 326 kts 190°
2026-05-06 23:53 36.49765 -78.92778 13716 ft 322 kts 189°
2026-05-06 23:53 36.47541 -78.92919 13089 ft 319 kts 189°
2026-05-06 23:53 36.45338 -78.93057 12489 ft 315 kts 189°
2026-05-06 23:54 36.43162 -78.93192 11891 ft 311 kts 189°
2026-05-06 23:54 36.41007 -78.93172 11300 ft 314 kts 176°
2026-05-06 23:54 36.38954 -78.92172 10823 ft 321 kts 152°
2026-05-06 23:54 36.37289 -78.90355 10502 ft 317 kts 140°
2026-05-06 23:55 36.35592 -78.88749 10138 ft 300 kts 165°
2026-05-06 23:55 36.33621 -78.88417 9829 ft 280 kts 196°
2026-05-06 23:55 36.31917 -78.89370 9481 ft 266 kts 223°
2026-05-06 23:55 36.30591 -78.90940 9154 ft 263 kts 229°
2026-05-06 23:56 36.29345 -78.92581 9053 ft 261 kts 230°
2026-05-06 23:56 36.28098 -78.94239 9025 ft 263 kts 228°
2026-05-06 23:56 36.26533 -78.95356 9002 ft 262 kts 197°
2026-05-06 23:56 36.24721 -78.95272 8775 ft 263 kts 174°
2026-05-06 23:57 36.23009 -78.94508 8481 ft 262 kts 159°
2026-05-06 23:57 36.21637 -78.93031 8224 ft 266 kts 130°
2026-05-06 23:57 36.20831 -78.90964 7959 ft 270 kts 108°
2026-05-06 23:57 36.20549 -78.88661 7699 ft 271 kts 98°
2026-05-06 23:58 36.20388 -78.86330 7434 ft 272 kts 97°
2026-05-06 23:58 36.20238 -78.83994 7150 ft 272 kts 97°
2026-05-06 23:58 36.20083 -78.81664 6859 ft 272 kts 97°
2026-05-06 23:58 36.19921 -78.79347 6571 ft 267 kts 97°
2026-05-06 23:59 36.19757 -78.77088 6268 ft 261 kts 97°
2026-05-06 23:59 36.19592 -78.74865 6030 ft 260 kts 97°
2026-05-06 23:59 36.19421 -78.72602 6005 ft 266 kts 98°
2026-05-06 23:59 36.19248 -78.70318 5995 ft 266 kts 97°
2026-05-07 00:00 36.19013 -78.68072 5964 ft 260 kts 110°
2026-05-07 00:00 36.18068 -78.66252 5694 ft 249 kts 146°
2026-05-07 00:00 36.16695 -78.64995 5440 ft 244 kts 150°
2026-05-07 00:00 36.15787 -78.64191 5221 ft 241 kts 150°
2026-05-07 00:01 36.13990 -78.62595 4791 ft 234 kts 150°
2026-05-07 00:01 36.12679 -78.61429 4461 ft 230 kts 150°
2026-05-07 00:01 36.11377 -78.60276 4145 ft 228 kts 152°
2026-05-07 00:01 36.09945 -78.59703 3796 ft 211 kts 188°
2026-05-07 00:02 36.08527 -78.59847 3516 ft 206 kts 190°
2026-05-07 00:02 36.07083 -78.59999 3200 ft 206 kts 190°
2026-05-07 00:02 36.05687 -78.60162 3044 ft 203 kts 190°
2026-05-07 00:02 36.04273 -78.60336 3008 ft 204 kts 192°
2026-05-07 00:03 36.03024 -78.60967 2991 ft 190 kts 226°
2026-05-07 00:03 36.02109 -78.62121 2990 ft 186 kts 226°
2026-05-07 00:03 36.01201 -78.63186 2981 ft 174 kts 226°
2026-05-07 00:03 36.00354 -78.64210 2991 ft 168 kts 227°
2026-05-07 00:04 35.99529 -78.65225 2985 ft 167 kts 227°
2026-05-07 00:04 35.98698 -78.66251 2892 ft 172 kts 227°
2026-05-07 00:04 35.97847 -78.67307 2685 ft 174 kts 227°
2026-05-07 00:04 35.97013 -78.68340 2470 ft 166 kts 227°
2026-05-07 00:05 35.96220 -78.69321 2255 ft 158 kts 227°
2026-05-07 00:05 35.95472 -78.70248 2083 ft 152 kts 227°
2026-05-07 00:05 35.94740 -78.71156 1863 ft 143 kts 227°
2026-05-07 00:05 35.94075 -78.71980 1731 ft 127 kts 225°
2026-05-07 00:06 35.93453 -78.72752 1522 ft 127 kts 225°
2026-05-07 00:06 35.93041 -78.73261 1427 ft 127 kts 225°
2026-05-07 00:06 35.92179 -78.74335 1206 ft 135 kts 226°
2026-05-07 00:06 35.91735 -78.74889 1094 ft 137 kts 225°
2026-05-07 00:07 35.91058 -78.75728 930 ft 139 kts 226°
2026-05-07 00:07 35.90367 -78.76582 745 ft 142 kts 225°
2026-05-07 00:07 35.89667 -78.77461 561 ft 144 kts 224°
2026-05-07 00:07 35.88968 -78.78322 423 ft 134 kts 225°
2026-05-07 00:08 35.88524 -78.78866 420 ft 53 kts 224°
2026-05-07 00:08 35.88358 -78.79055 425 ft 16 kts 210°
2026-05-07 00:08 35.88272 -78.79062 420 ft 7 kts 146°
2026-05-07 00:08 35.88253 -78.79040 427 ft 0 kts 134°
2026-05-07 00:09 35.88252 -78.79039 427 ft 0 kts 134°
2026-05-07 00:09 35.88230 -78.79042 419 ft 7 kts 207°
2026-05-07 00:09 35.88204 -78.79071 421 ft 5 kts 221°
2026-05-07 00:09 35.88181 -78.79098 425 ft 4 kts 226°
2026-05-07 00:10 35.88160 -78.79125 429 ft 5 kts 226°
2026-05-07 00:10 35.88124 -78.79169 428 ft 10 kts 225°
2026-05-07 00:10 35.88075 -78.79230 427 ft 10 kts 225°
2026-05-07 00:10 35.88027 -78.79288 425 ft 10 kts 224°
2026-05-07 00:11 35.87980 -78.79346 428 ft 9 kts 225°
2026-05-07 00:11 35.87929 -78.79410 433 ft 12 kts 226°
2026-05-07 00:11 35.87862 -78.79492 426 ft 15 kts 225°
2026-05-07 00:11 35.87789 -78.79583 427 ft 15 kts 225°
2026-05-07 00:12 35.87725 -78.79661 430 ft 12 kts 225°
2026-05-07 00:12 35.87667 -78.79734 424 ft 12 kts 225°
2026-05-07 00:12 35.87616 -78.79796 422 ft 7 kts 225°
2026-05-07 00:12 35.87592 -78.79825 423 ft 4 kts 217°
2026-05-07 00:13 35.87549 -78.79818 420 ft 10 kts 131°
2026-05-07 00:13 35.87585 -78.79733 424 ft 13 kts 46°
2026-05-07 00:13 35.87638 -78.79648 423 ft 13 kts 84°
2026-05-07 00:13 35.87608 -78.79588 422 ft 0 kts 135°
2026-05-07 00:14 35.87608 -78.79587 422 ft 0 kts 135°